DECAYED

OBJECT BP, 58317 (Decayed)

Orbit data source: Space-Track

You're viewing an Uncataloged Satellite

Recently launched and/or uncataloged satellites may have evolving metadata. Metadata may include but not limited to: Owner, Maufacturer, Bus, Motor, and Mission.

OBJECT BP, 58317 was a satellite in LEO that was launched on Sat, 11 Nov 2023 UTC via an FALCON 9 launch vehicle from the Air Force Western Test Range (AFWTR). Unknown objects in Earth's orbit typically refer to objects detected orbiting the Earth but have not yet been identified or cataloged. These objects could be anything from previously untracked satellites, spent rocket stages, debris from satellite collisions, or even natural meteoroids temporarily captured by Earth's gravity. This object's orbit decayed before it could be identified.

Not visible in the next 10 days
Identifier
58317, 2023-174BP
Orbit
Decayed
Country
Flag of TBDTBD
Related business
Flag of KRKorea Air Force Academy (KR)
Manufacturer
KAFA
Mission
Decayed Defense Imaging
Bus & Motor
CUBESAT 3U, Unknown motor
Mass
4 kg wet, 4 kg dry
Launch date (UTC)
2023-11-11 (2 years ago)
Launch vehicle
FALCON 9
Launch site
Air Force Western Test Range (AFWTR)
Object type
Unknown
Shape & HBR
Box, 0.1 m
Radar Cross Section
0.035 m², Small (<0.1 m²)

Expand to show TLE details & history
Last TLE update: 7 months ago

TLE from 7 months ago
0 OBJECT BP
1 58317U 23174BP  25091.62106398  .07821529  24928-5  14590-2 0  9998
2 58317  97.3838 180.0067 0013270 269.4347  90.5427 16.31943736 78302
Epoch: 2025-04-01T14:54Z
TLE epoch observation values (Epoch: 2025-04-01T14:54:19.927Z)
Latitude
-0.00011°
Longitude
126.2037°
Altitude
190.657 km
Speed
7.792 km/s
True Right ascension
12h 00m 01s
True Declination
0° 00' 00"
Sunlit
Object was in full shadow at epoch
Visualization orbit readout
Latitude
Unknown
Longitude
Unknown
Altitude
Unknown
Speed
Unknown
Apparent Right ascension
Unknown
Apparent Declination
Unknown
Sunlit
N/A
Visualization observer readout
Local Sidereal Time
10:32:57
Azimuth
Unknown
Elevation
Unknown
Doppler factor
Unknown
Orbital elements
Apogee altitude
192.847 km
Perigee altitude
175.431 km
Semi-major axis
6,562.276 km
Eccentricity
0.00133
Inclination
97.3838°
RAAN
180.0067°
Arg. of periapsis
269.4347°
True anomaly
90.69475°
Mean anomaly
90.5427°
Eccentric anomaly
90.61873°
Mean motion
4.08283 °/min
Orbital period
88.17 mins
BSTAR
0.001459
Loading maneuver chart data...
Computing Atmospheric mass density...
Loading historical data...
Loading historical data...
Loading historical data...
Loading historical data...
Loading historical data...
Loading historical data...
Loading historical data...

Documentation

Showing up to 5 results
|